EZY224 EGPH-EGAA

Flight info

Callsign EZY224
Flight time 0h 42m
Altitude 20000
Route GOSAM P600 BLACA DCT BELZU
Aircraft A20N/M-SDE2E3FGHIRWXY/LB1

Departure

Time 2026-04-21 18:47
Airport Edinburgh Airport (EGPH)

Arrival

Time 2026-04-21 19:29
Airport Belfast International Airport (EGAA)
Time Latitude Longitude Altitude Speed Heading
2026-04-21 18:27 55.94859 -3.36608 105 ft 0 kts 144°
2026-04-21 18:41 55.94866 -3.36618 106 ft 2 kts 148°
2026-04-21 18:41 55.94878 -3.36629 104 ft 2 kts 163°
2026-04-21 18:41 55.94892 -3.36635 104 ft 2 kts 179°
2026-04-21 18:42 55.94905 -3.36633 104 ft 2 kts 194°
2026-04-21 18:42 55.94922 -3.36622 104 ft 3 kts 213°
2026-04-21 18:42 55.94923 -3.36620 104 ft 0 kts 213°
2026-04-21 18:42 55.94923 -3.36621 104 ft 1 kts 213°
2026-04-21 18:43 55.94914 -3.36632 104 ft 3 kts 216°
2026-04-21 18:43 55.94899 -3.36683 104 ft 6 kts 259°
2026-04-21 18:43 55.94896 -3.36788 105 ft 10 kts 278°
2026-04-21 18:43 55.94921 -3.36890 104 ft 11 kts 259°
2026-04-21 18:44 55.94881 -3.37030 104 ft 14 kts 238°
2026-04-21 18:44 55.94823 -3.37199 104 ft 18 kts 239°
2026-04-21 18:44 55.94757 -3.37396 108 ft 19 kts 239°
2026-04-21 18:44 55.94687 -3.37603 110 ft 20 kts 239°
2026-04-21 18:45 55.94610 -3.37829 112 ft 23 kts 239°
2026-04-21 18:45 55.94520 -3.38093 111 ft 27 kts 239°
2026-04-21 18:45 55.94420 -3.38393 111 ft 29 kts 239°
2026-04-21 18:45 55.94318 -3.38696 115 ft 25 kts 240°
2026-04-21 18:46 55.94291 -3.38855 120 ft 7 kts 304°
2026-04-21 18:46 55.94339 -3.38916 116 ft 11 kts 334°
2026-04-21 18:46 55.94420 -3.38942 117 ft 10 kts 34°
2026-04-21 18:46 55.94436 -3.38897 116 ft 5 kts 53°
2026-04-21 18:47 55.94614 -3.38377 113 ft 93 kts 58°
2026-04-21 18:47 55.95072 -3.37038 140 ft 156 kts 59°
2026-04-21 18:47 55.95619 -3.35455 1099 ft 148 kts 59°
2026-04-21 18:47 55.96209 -3.33821 1933 ft 162 kts 58°
2026-04-21 18:48 55.96837 -3.32147 2800 ft 166 kts 58°
2026-04-21 18:48 55.97644 -3.30573 3568 ft 179 kts 40°
2026-04-21 18:48 55.98788 -3.29444 4213 ft 202 kts 31°
2026-04-21 18:48 56.00115 -3.28272 4794 ft 225 kts 23°
2026-04-21 18:49 56.01770 -3.28088 5454 ft 254 kts 352°
2026-04-21 18:49 56.03440 -3.29454 6019 ft 283 kts 324°
2026-04-21 18:49 56.04368 -3.31183 6417 ft 300 kts 306°
2026-04-21 18:49 56.05238 -3.35973 7652 ft 310 kts 271°
2026-04-21 18:50 56.04855 -3.39779 8591 ft 313 kts 245°
2026-04-21 18:50 56.03731 -3.43155 9154 ft 330 kts 232°
2026-04-21 18:50 56.02385 -3.46687 9556 ft 353 kts 237°
2026-04-21 18:50 56.01260 -3.50624 10083 ft 357 kts 245°
2026-04-21 18:51 56.00386 -3.54838 10682 ft 362 kts 251°
2026-04-21 18:51 55.99675 -3.59128 11257 ft 367 kts 253°
2026-04-21 18:51 55.99018 -3.63555 11831 ft 370 kts 254°
2026-04-21 18:51 55.98371 -3.68042 12425 ft 371 kts 254°
2026-04-21 18:52 55.97724 -3.72520 13025 ft 373 kts 254°
2026-04-21 18:52 55.97074 -3.76983 13634 ft 378 kts 254°
2026-04-21 18:52 55.96403 -3.81548 14268 ft 381 kts 254°
2026-04-21 18:52 55.95721 -3.86158 14825 ft 383 kts 254°
2026-04-21 18:53 55.95035 -3.90771 15394 ft 385 kts 254°
2026-04-21 18:53 55.94351 -3.95355 15964 ft 389 kts 253°
2026-04-21 18:53 55.93500 -3.99944 16563 ft 391 kts 241°
2026-04-21 18:53 55.91954 -4.03910 17160 ft 388 kts 223°
2026-04-21 18:54 55.89903 -4.06967 17776 ft 388 kts 212°
2026-04-21 18:54 55.87640 -4.09665 18420 ft 391 kts 209°
2026-04-21 18:54 55.85221 -4.11831 19004 ft 388 kts 194°
2026-04-21 18:54 55.82598 -4.12643 19577 ft 386 kts 181°
2026-04-21 18:55 55.80782 -4.12874 19956 ft 388 kts 181°
2026-04-21 18:55 55.77192 -4.13320 20209 ft 389 kts 181°
2026-04-21 18:55 55.74474 -4.13672 20312 ft 390 kts 181°
2026-04-21 18:55 55.71762 -4.14011 20415 ft 390 kts 181°
2026-04-21 18:56 55.69045 -4.14320 20501 ft 392 kts 180°
2026-04-21 18:56 55.66368 -4.14881 20503 ft 393 kts 192°
2026-04-21 18:56 55.63819 -4.16746 20506 ft 400 kts 208°
2026-04-21 18:56 55.61655 -4.19894 20502 ft 405 kts 226°
2026-04-21 18:57 55.60088 -4.24038 20499 ft 409 kts 243°
2026-04-21 18:57 55.59074 -4.28774 20493 ft 415 kts 249°
2026-04-21 18:57 55.58137 -4.33525 20491 ft 412 kts 249°
2026-04-21 18:57 55.57189 -4.38294 20491 ft 410 kts 249°
2026-04-21 18:58 55.56242 -4.43055 20490 ft 409 kts 249°
2026-04-21 18:58 55.55322 -4.47723 20492 ft 389 kts 249°
2026-04-21 18:58 55.54199 -4.51891 20481 ft 373 kts 233°
2026-04-21 18:58 55.52395 -4.55170 20484 ft 375 kts 213°
2026-04-21 18:59 55.50131 -4.57442 20482 ft 374 kts 203°
2026-04-21 18:59 55.47791 -4.59450 20482 ft 372 kts 204°
2026-04-21 18:59 55.45526 -4.61602 20480 ft 373 kts 207°
2026-04-21 18:59 55.43291 -4.64001 20491 ft 374 kts 210°
2026-04-21 19:00 55.41138 -4.66492 20481 ft 372 kts 212°
2026-04-21 19:00 55.38994 -4.69064 20474 ft 372 kts 212°
2026-04-21 19:00 55.36855 -4.71665 20468 ft 373 kts 212°
2026-04-21 19:00 55.34746 -4.74238 20469 ft 373 kts 212°
2026-04-21 19:01 55.32607 -4.76836 20466 ft 372 kts 212°
2026-04-21 19:01 55.30402 -4.79227 20466 ft 371 kts 205°
2026-04-21 19:01 55.28121 -4.81231 20465 ft 370 kts 204°
2026-04-21 19:01 55.25801 -4.83261 20457 ft 371 kts 204°
2026-04-21 19:02 55.23488 -4.85289 20452 ft 371 kts 205°
2026-04-21 19:02 55.21206 -4.87294 20450 ft 371 kts 204°
2026-04-21 19:02 55.18870 -4.89345 20452 ft 370 kts 204°
2026-04-21 19:02 55.16663 -4.91562 20451 ft 373 kts 216°
2026-04-21 19:03 55.14914 -4.94910 20453 ft 376 kts 236°
2026-04-21 19:03 55.13908 -4.99136 20449 ft 379 kts 256°
2026-04-21 19:03 55.13774 -5.03760 20449 ft 383 kts 277°
2026-04-21 19:03 55.14519 -5.08162 20445 ft 385 kts 296°
2026-04-21 19:04 55.15801 -5.12313 20438 ft 385 kts 298°
2026-04-21 19:04 55.16992 -5.16514 20448 ft 388 kts 291°
2026-04-21 19:04 55.17588 -5.21101 20450 ft 385 kts 271°
2026-04-21 19:04 55.17617 -5.25718 20450 ft 384 kts 269°
2026-04-21 19:05 55.17613 -5.30418 20446 ft 387 kts 269°
2026-04-21 19:05 55.17609 -5.35140 20447 ft 386 kts 269°
2026-04-21 19:05 55.17605 -5.39849 20446 ft 386 kts 269°
2026-04-21 19:05 55.17599 -5.44489 20446 ft 385 kts 268°
2026-04-21 19:06 55.17587 -5.49169 20449 ft 383 kts 268°
2026-04-21 19:06 55.17446 -5.53862 20451 ft 385 kts 262°
2026-04-21 19:06 55.17064 -5.58488 20450 ft 384 kts 258°
2026-04-21 19:06 55.16627 -5.63063 20449 ft 383 kts 258°
2026-04-21 19:07 55.16178 -5.67676 20448 ft 382 kts 258°
2026-04-21 19:07 55.15728 -5.72278 20449 ft 383 kts 258°
2026-04-21 19:07 55.15284 -5.76826 20449 ft 383 kts 258°
2026-04-21 19:07 55.14840 -5.81437 20450 ft 385 kts 258°
2026-04-21 19:08 55.14390 -5.86045 20450 ft 383 kts 258°
2026-04-21 19:08 55.13939 -5.90583 20449 ft 382 kts 258°
2026-04-21 19:08 55.13485 -5.95199 20446 ft 384 kts 258°
2026-04-21 19:08 55.13035 -5.99801 20446 ft 384 kts 258°
2026-04-21 19:09 55.12582 -6.04408 20446 ft 383 kts 258°
2026-04-21 19:09 55.12133 -6.08929 20445 ft 382 kts 258°
2026-04-21 19:09 55.11676 -6.13516 20449 ft 384 kts 258°
2026-04-21 19:09 55.11222 -6.18114 20444 ft 385 kts 258°
2026-04-21 19:10 55.10772 -6.22690 20444 ft 383 kts 258°
2026-04-21 19:10 55.10304 -6.27278 20440 ft 381 kts 256°
2026-04-21 19:10 55.09604 -6.31715 20439 ft 375 kts 249°
2026-04-21 19:10 55.08719 -6.36014 20439 ft 378 kts 248°
2026-04-21 19:11 55.07842 -6.40260 20431 ft 367 kts 248°
2026-04-21 19:11 55.06984 -6.44362 20431 ft 350 kts 248°
2026-04-21 19:11 55.06432 -6.46983 20430 ft 339 kts 248°
2026-04-21 19:11 55.05642 -6.50792 20266 ft 332 kts 248°
2026-04-21 19:12 55.04853 -6.54628 19786 ft 338 kts 248°
2026-04-21 19:12 55.04058 -6.58498 19014 ft 348 kts 248°
2026-04-21 19:12 55.03240 -6.62575 17962 ft 364 kts 248°
2026-04-21 19:12 55.02385 -6.66838 16890 ft 377 kts 248°
2026-04-21 19:13 55.01494 -6.71217 15845 ft 387 kts 248°
2026-04-21 19:13 55.00572 -6.75679 14848 ft 396 kts 248°
2026-04-21 19:13 54.99649 -6.80188 13832 ft 403 kts 251°
2026-04-21 19:13 54.99224 -6.85057 12835 ft 409 kts 267°
2026-04-21 19:14 54.98963 -6.89967 12129 ft 400 kts 255°
2026-04-21 19:14 54.97964 -6.94298 11505 ft 380 kts 235°
2026-04-21 19:14 54.96277 -6.97666 10876 ft 360 kts 214°
2026-04-21 19:14 54.94200 -6.99797 10271 ft 344 kts 201°
2026-04-21 19:15 54.92026 -7.01403 9596 ft 334 kts 198°
2026-04-21 19:15 54.89890 -7.02889 8932 ft 326 kts 198°
2026-04-21 19:15 54.87806 -7.04352 8283 ft 318 kts 198°
2026-04-21 19:15 54.85794 -7.05769 7655 ft 312 kts 198°
2026-04-21 19:16 54.83795 -7.07197 7033 ft 307 kts 198°
2026-04-21 19:16 54.81837 -7.08612 6472 ft 301 kts 198°
2026-04-21 19:16 54.79972 -7.09992 6358 ft 279 kts 198°
2026-04-21 19:16 54.78284 -7.11282 6243 ft 259 kts 198°
2026-04-21 19:17 54.75143 -7.12023 5984 ft 206 kts 168°
2026-04-21 19:17 54.73810 -7.11790 5970 ft 182 kts 163°
2026-04-21 19:17 54.72550 -7.11438 5695 ft 192 kts 164°
2026-04-21 19:18 54.71159 -7.10904 5940 ft 214 kts 154°
2026-04-21 19:18 54.69790 -7.09856 6003 ft 214 kts 147°
2026-04-21 19:18 54.68480 -7.08645 6004 ft 212 kts 147°
2026-04-21 19:18 54.67255 -7.07284 6003 ft 210 kts 136°
2026-04-21 19:19 54.66239 -7.05492 6003 ft 207 kts 119°
2026-04-21 19:19 54.65580 -7.03267 6005 ft 207 kts 113°
2026-04-21 19:19 54.65028 -7.01051 5980 ft 195 kts 112°
2026-04-21 19:19 54.64516 -6.98974 5991 ft 178 kts 112°
2026-04-21 19:20 54.64040 -6.97095 6001 ft 168 kts 113°
2026-04-21 19:20 54.63551 -6.95224 6002 ft 170 kts 114°
2026-04-21 19:20 54.63061 -6.93398 6004 ft 169 kts 114°
2026-04-21 19:20 54.62561 -6.91556 6003 ft 169 kts 114°
2026-04-21 19:21 54.62057 -6.89712 6001 ft 168 kts 114°
2026-04-21 19:21 54.61556 -6.87880 6010 ft 175 kts 114°
2026-04-21 19:21 54.60979 -6.85759 6006 ft 215 kts 114°
2026-04-21 19:21 54.60325 -6.83363 6000 ft 221 kts 114°
2026-04-21 19:22 54.59672 -6.80983 6006 ft 222 kts 114°
2026-04-21 19:22 54.59004 -6.78552 6006 ft 222 kts 114°
2026-04-21 19:22 54.58349 -6.76166 6003 ft 222 kts 114°
2026-04-21 19:22 54.57687 -6.73756 6004 ft 222 kts 114°
2026-04-21 19:23 54.57023 -6.71344 6000 ft 222 kts 114°
2026-04-21 19:23 54.56363 -6.68942 6000 ft 220 kts 115°
2026-04-21 19:23 54.55706 -6.66557 6000 ft 220 kts 115°
2026-04-21 19:23 54.55073 -6.64182 6002 ft 220 kts 109°
2026-04-21 19:24 54.54959 -6.61561 6007 ft 224 kts 81°
2026-04-21 19:24 54.55551 -6.59044 6002 ft 227 kts 69°
2026-04-21 19:24 54.56228 -6.56623 6003 ft 227 kts 69°
2026-04-21 19:24 54.56914 -6.54165 6083 ft 218 kts 69°
2026-04-21 19:25 54.57517 -6.52015 6301 ft 191 kts 70°
2026-04-21 19:25 54.58066 -6.50028 6158 ft 177 kts 70°
2026-04-21 19:25 54.58585 -6.48106 5765 ft 177 kts 70°
2026-04-21 19:25 54.59111 -6.46140 5124 ft 182 kts 70°
2026-04-21 19:26 54.59647 -6.44138 4355 ft 184 kts 69°
2026-04-21 19:26 54.60181 -6.42166 3635 ft 183 kts 69°
2026-04-21 19:26 54.60717 -6.40192 2961 ft 178 kts 69°
2026-04-21 19:26 54.61236 -6.38282 2446 ft 168 kts 68°
2026-04-21 19:27 54.61704 -6.36574 2315 ft 154 kts 69°
2026-04-21 19:27 54.62141 -6.34973 2243 ft 147 kts 69°
2026-04-21 19:27 54.62576 -6.33350 2132 ft 148 kts 69°
2026-04-21 19:27 54.63006 -6.31757 2023 ft 145 kts 69°
2026-04-21 19:28 54.63428 -6.30240 1602 ft 139 kts 67°
2026-04-21 19:28 54.63867 -6.28755 1010 ft 139 kts 68°
2026-04-21 19:28 54.64266 -6.27277 731 ft 138 kts 76°
2026-04-21 19:28 54.64633 -6.25643 535 ft 145 kts 68°
2026-04-21 19:29 54.65042 -6.24183 319 ft 126 kts 66°
2026-04-21 19:29 54.65382 -6.22916 225 ft 87 kts 69°
2026-04-21 19:29 54.65530 -6.22379 225 ft 40 kts 64°
2026-04-21 19:29 54.65650 -6.21927 229 ft 51 kts 65°
2026-04-21 19:30 54.65795 -6.21403 237 ft 44 kts 55°
2026-04-21 19:30 54.65926 -6.21361 241 ft 18 kts 338°
2026-04-21 19:30 54.66012 -6.21275 243 ft 16 kts 64°
2026-04-21 19:30 54.66077 -6.21212 243 ft 11 kts 322°
2026-04-21 19:31 54.66158 -6.21274 242 ft 15 kts 337°
2026-04-21 19:31 54.66187 -6.21392 240 ft 2 kts 249°
2026-04-21 19:31 54.66183 -6.21403 240 ft 1 kts 238°
2026-04-21 19:31 54.66181 -6.21408 240 ft 0 kts 239°